AKST,Max TemperatureF,Mean TemperatureF,Min TemperatureF,Max Dew PointF,MeanDew PointF,Min DewpointF,Max Humidity, Mean Humidity, Min Humidity, Max Sea Level PressureIn, Mean Sea Level PressureIn, Min Sea Level PressureIn, Max VisibilityMiles, Mean VisibilityMiles, Min VisibilityMiles, Max Wind SpeedMPH, Mean Wind SpeedMPH, Max Gust SpeedMPH,PrecipitationIn, CloudCover, Events, WindDirDegrees
2013-2-1,-2,0,-7,5,-5,-11,87,83,78,30.37,30.25,30.05,10,9,8,7,4,,0.00,6,Snow,117
2013-2-2,17,8,-2,13,5,-7,87,79,67,30.17,29.85,29.65,10,8,2,17,9,28,0.00,5,Snow,71
2013-2-3,7,14,6,16,11,0,92,82,72,29.75,29.67,29.55,10,9,6,15,8,22,0.00,8,Snow,82
2013-2-4,8,8,6,3,0,-2,84,75,67,29.94,29.86,29.75,10,9,5,7,5,,0.00,8,Snow,74
2013-2-5,0,5,0,1,-6,-12,73,59,53,29.96,29.95,29.94,10,10,6,12,8,,0.00,8,Snow,353
2013-2-6,-15,-7,-15,-13,-16,-21,78,65,56,30.03,30.01,29.97,10,10,10,12,7,,0.00,2,,22
2013-2-7,-22,-18,-24,-19,-25,-30,81,76,73,29.99,29.83,29.71,10,10,10,9,5,,0.00,0,,352
2013-2-8,-20,-22,-27,-23,-28,-35,78,75,69,30.06,29.91,29.72,10,10,7,9,3,,0.00,1,Snow,43
2013-2-9,12,-4,-23,10,-13,-28,92,77,66,30.06,29.69,29.18,10,9,6,8,4,,0.00,6,Snow,58
2013-2-10,9,15,8,18,13,3,93,83,74,29.53,29.21,29.05,10,8,2,14,6,20,0.00,8,Snow,116
2013-2-11,0,-1,-11,4,-8,-16,85,79,72,29.89,29.77,29.46,10,10,9,13,7,,0.00,3,Snow,218
2013-2-12,14,7,0,9,1,-6,92,80,72,29.89,29.82,29.72,10,9,3,12,7,20,0.00,8,Snow,94
2013-2-13,21,18,14,18,14,10,93,84,74,29.88,29.78,29.69,10,7,2,17,8,25,0.00,8,Snow,90
2013-2-14,3,13,3,19,14,0,93,85,74,29.83,29.60,29.47,10,6,2,17,9,28,0.00,8,Snow,105
2013-2-15,-5,-2,-6,0,-4,-11,88,82,69,30.22,29.85,29.59,10,5,2,15,9,20,0.00,8,Snow,219
2013-2-16,-27,-16,-27,-10,-17,-32,84,78,68,30.36,30.25,30.11,10,8,3,8,2,,0.00,6,Snow,74
2013-2-17,-11,-17,-32,-11,-24,-34,77,68,56,30.54,30.43,30.32,10,10,8,16,3,20,0.00,0,,274
2013-2-18,-17,-14,-23,-16,-21,-30,79,67,51,30.56,30.45,30.33,10,10,8,9,3,,0.00,0,,141
2013-2-19,-13,-14,-23,-15,-22,-29,77,68,56,30.46,30.25,30.01,10,10,10,8,5,,0.00,0,,39
2013-2-20,-9,-6,-16,-9,-16,-22,79,67,55,30.00,29.87,29.81,10,10,10,8,4,,0.00,0,,55
2013-2-21,-18,-10,-18,-14,-18,-26,75,65,54,29.84,29.81,29.77,10,10,10,9,6,,0.00,0,,65
2013-2-22,-18,-16,-20,-18,-24,-29,84,71,64,29.89,29.83,29.70,10,9,6,9,6,,0.00,6,Snow,59
2013-2-23,-16,-14,-18,-19,-23,-27,75,69,61,29.81,29.69,29.62,10,10,9,12,6,,0.00,5,Snow,77
2013-2-24,-8,-7,-17,-9,-16,-23,79,68,57,29.90,29.76,29.65,10,9,5,7,5,,0.00,5,Snow,89
2013-2-25,-18,-12,-17,-13,-17,-24,79,74,65,30.19,29.98,29.86,9,6,2,14,3,,0.00,8,Snow,203
2013-2-26,-20,-18,-27,-17,-26,-35,78,72,61,30.23,30.10,29.91,10,9,4,8,4,,0.00,1,Snow,272
2013-2-27,-8,-10,-22,-6,-18,-27,82,71,57,29.89,29.72,29.60,10,10,10,6,0,,0.00,0,,343
2013-2-28,-4,0,-8,0,-4,-13,83,73,64,29.87,29.69,29.59,10,10,10,13,3,,0.00,5,,188